Theta_e
339 338 338 338 337 337 336 335 334 334 333 333 332 331 330 329 327 326 324 323 321 320 320 319 317 316 313 311 310 309 309 309 308 308 308 307 307 307 306 306 305 305 304 304 303 302 301 301 302 302 302 303 302 302 302 302 301 300 300 300 300 301 301 301 302 302 301 301 300 301 300 299 299 298 296 295 294 295 296 297 297 297 298 298 298
339 339 338 337 337 337 336 335 334 333 332 332 331 330 329 328 327 325 324 323 321 320 319 318 317 315 312 310 309 309 308 308 307 307 306 306 306 306 305 305 304 304 303 302 302 301 301 301 302 302 302 302 302 302 302 301 301 301 301 301 301 301 301 301 302 302 301 300 301 300 299 299 298 296 295 295 295 296 296 297 297 297 297 298 298
339 338 338 337 337 337 336 334 333 333 332 331 330 329 329 327 326 325 324 322 321 320 319 318 316 314 311 309 309 308 307 307 306 306 306 305 305 305 305 304 303 302 302 302 303 303 301 301 302 303 303 303 303 302 302 301 301 302 302 302 301 302 302 301 301 301 300 300 300 300 299 298 297 295 295 295 296 297 297 297 297 297 297 297 297
339 338 338 337 337 337 335 334 333 332 332 331 330 329 328 327 326 325 323 321 320 319 318 317 315 312 310 309 308 308 307 306 306 306 305 305 304 304 304 303 302 302 302 302 304 304 302 302 303 304 303 303 303 302 302 302 302 302 302 302 301 301 301 301 300 300 299 300 300 299 299 298 296 295 296 296 296 297 297 297 298 298 297 297 298
338 338 338 337 337 336 335 334 333 332 332 330 330 329 328 327 325 324 323 321 320 319 317 315 313 310 308 308 308 307 307 306 306 305 305 304 304 303 303 303 303 302 302 302 304 304 303 303 303 304 303 303 302 302 302 302 302 302 302 301 301 301 301 300 300 299 299 300 299 299 298 297 295 296 296 296 296 297 297 297 298 298 298 298 298
338 338 338 337 337 336 335 334 333 332 331 330 329 328 327 326 324 323 322 321 320 318 316 315 313 310 308 308 308 307 307 306 305 305 305 304 304 303 303 303 303 303 303 303 303 303 303 303 303 303 303 303 303 302 302 302 302 302 302 301 300 300 300 300 298 298 299 300 299 299 298 296 295 297 297 297 297 297 297 297 298 298 298 298 298
338 338 338 337 337 336 335 334 333 332 331 330 328 328 327 325 324 323 322 321 319 317 315 314 312 310 308 308 308 307 307 306 305 305 305 305 304 303 303 303 303 303 303 303 303 302 302 302 303 303 303 303 303 302 302 301 301 301 301 299 299 300 299 298 296 296 298 299 299 298 298 296 296 297 297 297 297 297 297 298 298 298 298 298 298
339 338 338 337 336 335 334 333 332 331 330 329 328 327 326 325 323 322 321 320 319 317 315 314 312 309 308 308 308 307 306 306 306 305 305 305 305 303 303 304 304 304 304 303 303 302 302 303 303 303 303 302 302 302 302 300 299 299 298 298 298 298 297 295 294 294 295 296 297 297 296 296 296 297 297 297 297 298 298 298 298 298 298 298 298
338 338 337 336 336 335 334 333 331 330 329 328 327 326 325 324 323 322 321 320 319 317 315 313 311 309 308 308 307 307 307 306 306 305 305 305 305 303 303 304 303 304 304 304 303 303 303 304 304 304 303 302 301 301 301 300 299 297 296 296 296 295 294 294 294 294 294 294 295 295 295 296 297 297 297 298 298 298 299 299 299 298 298 298 298
338 338 336 336 335 334 333 332 330 329 328 327 326 324 324 323 322 321 320 319 318 316 314 312 310 308 308 308 307 307 307 307 306 304 304 305 304 303 303 304 304 304 304 304 304 304 304 304 304 304 303 302 301 300 301 301 299 296 295 295 295 294 294 295 296 296 295 294 294 294 295 296 298 297 297 298 298 299 299 299 299 299 298 298 298
338 337 336 335 335 334 332 331 329 328 327 326 325 324 323 323 322 321 319 318 317 315 313 311 309 308 308 307 307 307 307 307 306 304 304 305 304 303 304 304 304 304 304 304 304 304 304 304 304 303 303 302 300 300 302 301 297 294 294 294 294 295 296 298 299 299 298 297 296 295 296 297 298 298 298 298 299 299 299 299 299 298 298 297 297
338 337 336 335 334 333 331 330 329 328 326 325 324 323 323 322 321 320 318 317 316 314 312 311 309 308 308 307 307 307 307 306 305 305 305 305 304 304 304 304 304 304 304 304 304 304 304 303 303 302 302 300 297 298 301 298 294 294 294 294 296 298 300 300 300 300 299 299 298 297 297 297 298 299 298 298 299 299 299 299 299 299 298 297 297
337 336 336 335 334 332 330 329 328 327 326 325 324 323 322 321 320 319 318 317 315 313 311 310 308 307 307 307 307 307 307 306 305 305 305 304 304 304 304 304 304 304 304 304 304 303 303 303 302 300 298 296 294 296 297 295 293 295 295 296 299 300 300 301 300 300 300 300 298 297 297 298 298 298 298 298 298 299 299 299 299 299 298 298 298
336 336 335 334 333 331 329 329 327 326 325 324 323 322 321 320 319 318 317 316 314 312 311 309 308 307 307 307 307 307 306 306 305 305 304 304 304 304 304 303 303 303 303 303 303 303 302 303 300 296 293 292 293 294 294 294 296 297 297 298 300 300 301 301 301 300 300 300 299 297 297 297 298 298 298 298 298 299 299 299 299 299 299 298 298
336 335 334 333 332 330 329 328 327 326 324 323 322 321 320 319 318 317 316 315 314 312 310 309 308 307 307 307 307 307 306 305 305 305 304 304 304 304 304 303 303 303 301 301 302 302 303 302 298 293 291 292 292 293 294 295 297 298 298 299 300 301 302 301 301 301 301 300 299 297 297 297 297 298 299 299 299 299 299 299 299 299 298 298 298
335 334 334 333 331 330 328 327 326 325 324 323 322 320 319 318 317 317 316 315 314 312 310 309 308 307 307 306 306 306 306 305 305 305 304 304 303 303 303 303 303 302 300 300 302 303 303 300 295 291 291 292 293 295 296 297 298 299 299 299 300 301 302 301 302 302 301 301 299 296 296 298 298 298 299 299 299 299 299 299 299 299 298 299 298
335 334 333 332 331 329 328 327 326 324 323 322 321 320 319 318 318 317 316 314 313 312 311 309 308 307 307 306 306 306 305 305 305 305 304 304 303 303 303 303 302 301 300 301 303 303 303 300 296 293 293 293 293 295 297 298 299 300 299 300 300 301 301 301 302 302 301 300 298 295 296 298 299 299 299 299 299 299 299 299 299 299 299 298 298
334 333 332 332 330 329 328 326 325 324 323 322 322 321 320 318 317 316 315 314 313 312 311 309 308 308 307 307 307 306 305 305 305 305 305 304 303 303 302 302 302 301 300 302 303 303 302 301 299 298 298 297 295 296 297 299 299 299 299 299 300 301 301 301 301 301 300 299 296 295 296 298 299 299 299 299 299 299 299 299 299 299 299 298 298
333 333 332 331 330 329 327 326 325 324 323 323 323 322 320 318 317 316 315 315 314 313 311 310 308 308 307 307 307 306 306 305 305 305 304 304 303 303 302 302 301 301 301 303 303 303 302 302 301 301 302 301 300 300 300 300 300 298 296 296 298 300 301 301 301 301 300 297 296 296 298 299 299 299 299 299 299 299 299 299 299 299 299 299 298
333 332 331 330 328 327 326 325 325 324 323 324 324 322 319 317 316 316 316 315 314 312 311 310 309 308 308 307 307 306 306 306 305 304 304 304 304 303 302 301 301 301 302 303 303 303 302 301 302 302 303 302 302 302 302 301 301 298 294 293 296 299 301 301 301 300 297 295 296 298 299 299 299 299 299 299 299 299 299 299 299 299 299 299 298
333 331 331 329 327 326 326 325 324 324 324 324 324 321 319 317 316 316 316 315 313 312 311 310 309 309 308 307 307 306 307 307 306 305 304 304 304 304 302 302 302 302 303 303 303 302 302 302 302 303 303 303 302 302 302 302 302 300 296 293 295 298 300 300 300 299 296 294 296 299 299 299 299 299 299 299 299 299 299 299 299 299 299 299 298
332 331 330 328 326 326 326 324 324 323 323 324 322 320 318 317 315 316 316 314 313 312 311 310 309 309 308 307 307 307 307 307 307 305 304 304 304 304 302 303 304 304 304 303 303 303 302 302 303 302 302 302 302 302 302 301 301 301 299 297 295 295 297 297 297 296 295 293 295 298 299 299 299 299 299 299 299 299 299 299 299 299 299 299 298
331 330 329 327 326 325 325 323 323 323 323 323 322 319 318 316 315 315 315 314 312 312 311 310 310 309 307 306 306 307 307 307 307 307 305 304 304 304 302 303 305 305 304 304 304 303 303 303 303 302 302 302 302 302 301 301 301 301 300 299 297 294 294 294 294 294 293 293 295 297 299 299 299 299 300 299 299 299 299 299 299 299 299 299 299
331 330 329 327 326 325 324 323 323 323 323 322 320 318 317 315 315 315 314 313 312 311 310 310 309 308 307 306 306 307 307 307 307 307 307 305 304 303 302 303 304 305 304 304 304 304 304 304 303 302 302 303 302 302 302 301 301 300 299 299 297 294 292 292 293 293 293 293 294 297 299 299 299 299 300 299 299 299 299 299 299 299 299 299 299
330 329 328 327 326 325 324 323 323 323 322 321 320 317 316 315 314 314 314 313 311 310 310 310 309 308 307 307 307 307 307 307 308 307 307 305 305 304 302 302 304 305 304 304 304 304 304 304 303 303 303 303 303 302 302 302 300 298 297 297 295 293 292 292 292 292 292 293 294 297 298 299 299 299 299 299 299 299 299 299 299 299 299 299 299
329 328 328 327 325 325 324 323 322 322 322 321 320 318 317 316 314 313 313 312 311 310 310 309 308 308 308 308 308 307 307 308 308 307 307 306 306 304 302 302 303 304 304 304 304 304 304 304 304 304 303 303 303 302 303 302 300 298 296 295 293 292 292 292 292 292 293 293 295 296 298 299 299 299 299 300 299 299 298 299 299 299 299 299 299
328 327 326 325 324 324 323 322 321 321 320 320 318 317 316 315 313 312 312 311 310 310 309 309 309 308 308 308 307 306 306 307 307 307 307 306 306 305 303 302 302 303 304 304 304 304 304 303 304 304 304 303 303 303 303 302 300 298 296 295 294 294 293 293 292 292 293 293 295 296 297 298 299 299 299 299 299 299 298 299 299 299 299 299 299
327 325 324 323 323 323 323 322 321 319 319 318 317 315 314 313 313 312 312 312 311 310 309 309 309 309 309 308 307 306 305 306 307 307 307 307 306 305 304 302 302 302 303 303 303 303 303 303 302 302 302 303 303 302 303 302 300 297 296 296 296 296 295 294 294 293 293 293 294 295 296 297 298 299 300 300 299 299 299 298 299 299 299 299 299
326 324 323 322 321 321 322 321 320 319 318 317 316 316 315 314 314 313 312 313 313 312 311 310 310 309 309 308 307 306 305 306 307 308 307 307 306 306 305 303 302 301 302 302 302 302 302 301 301 301 301 302 302 302 302 301 298 297 297 297 297 297 297 297 296 295 293 293 293 295 296 298 299 300 300 300 300 299 299 299 299 298 299 299 298
324 323 321 321 320 320 320 319 319 318 316 316 315 315 315 315 314 313 312 312 312 312 312 312 312 311 310 309 308 308 308 309 309 308 307 307 306 306 306 305 303 301 301 301 301 301 301 301 300 300 299 300 300 300 300 298 297 297 298 298 298 298 297 296 295 294 293 294 295 297 298 299 299 300 300 300 300 299 299 299 299 299 299 299 298
322 320 319 319 319 319 319 318 317 316 315 315 314 313 312 312 312 313 312 312 311 311 312 313 312 312 311 310 310 309 309 309 308 307 307 306 306 306 306 306 304 302 300 299 298 298 299 300 300 300 299 298 298 298 298 297 297 298 298 298 298 298 296 294 293 293 294 296 298 299 299 299 300 300 300 299 299 299 299 299 299 299 299 299 298
320 318 318 318 318 318 318 317 316 315 315 314 313 313 312 311 311 311 312 312 311 312 312 312 312 311 311 311 310 309 308 307 307 307 306 306 306 306 306 306 305 303 300 297 296 297 297 298 299 299 299 299 298 298 298 298 298 298 298 298 299 298 295 294 293 294 296 298 299 299 299 299 299 299 299 299 299 299 299 299 299 299 299 299 298
319 318 317 317 317 316 316 315 314 314 313 313 312 312 311 311 310 310 311 310 310 310 311 310 310 310 310 310 309 308 308 307 306 306 306 306 306 306 306 306 305 303 300 297 296 296 297 297 297 298 299 299 299 299 298 298 298 298 298 298 298 296 295 296 296 297 298 299 298 299 299 299 299 299 299 299 299 299 299 299 299 299 299 298 298
320 319 319 318 316 315 314 313 313 313 313 313 312 312 311 311 311 310 309 308 307 307 308 308 309 309 308 308 308 307 307 306 306 306 305 305 305 305 305 305 304 302 300 299 298 297 296 296 297 297 298 299 299 299 298 298 298 298 298 298 295 294 295 297 298 298 298 299 298 298 298 298 298 298 298 299 299 299 299 299 299 299 299 298 298
320 320 320 320 318 315 315 315 315 314 314 313 312 312 311 311 310 310 308 306 305 305 306 307 307 308 307 307 306 306 306 305 305 305 305 304 304 304 304 303 301 299 298 298 298 298 297 297 296 296 297 297 298 298 298 298 298 298 298 296 293 293 296 298 298 298 298 298 298 298 298 298 298 298 299 299 299 298 299 299 299 299 298 297 297
319 319 319 318 317 316 316 315 315 314 313 312 312 311 310 310 310 309 308 306 305 305 305 306 307 307 307 306 305 305 305 304 304 304 304 304 304 304 304 302 301 300 298 298 298 298 298 297 297 297 296 297 297 297 297 297 297 297 296 295 294 296 298 298 298 298 298 298 298 298 298 297 297 298 300 300 299 299 299 299 298 298 298 298 297
320 320 318 317 316 315 315 314 313 313 312 312 311 310 310 309 309 308 307 306 305 305 305 305 305 305 306 305 305 305 304 304 303 303 303 303 303 304 303 303 302 301 300 299 299 298 298 298 298 297 297 297 297 296 296 296 296 296 295 295 297 298 298 298 298 298 298 297 298 298 297 297 298 299 300 299 299 299 299 299 299 299 298 298 298
320 320 318 316 315 314 314 313 313 312 312 311 310 310 309 309 308 307 306 306 306 305 304 304 304 304 304 304 304 304 303 303 303 303 303 303 303 303 302 302 302 301 301 301 300 299 298 298 298 298 297 297 297 297 297 296 296 295 295 297 297 297 297 297 297 297 297 297 297 297 297 297 299 299 299 299 299 299 299 299 299 299 298 298 298
318 317 317 316 315 314 314 313 313 312 311 310 310 310 309 308 308 307 306 306 305 305 304 303 303 302 302 303 303 302 302 302 302 301 302 302 302 302 302 302 301 301 301 300 300 299 299 298 298 298 297 297 297 297 296 295 294 293 294 296 297 296 296 296 296 296 296 297 297 297 297 298 299 299 299 299 299 300 300 299 299 298 298 298 298
317 317 317 316 314 314 314 313 313 312 311 310 310 310 309 308 307 306 306 306 305 304 304 304 304 302 301 302 302 301 301 300 300 301 301 301 301 301 301 301 301 301 300 300 299 298 298 297 297 297 297 297 297 296 295 294 292 292 292 294 295 296 296 296 295 296 297 298 298 298 298 298 298 299 299 299 300 300 300 299 299 299 298 298 298
316 316 315 315 314 314 313 313 313 312 312 311 311 310 309 308 307 306 306 305 305 304 304 304 304 304 303 302 302 302 301 301 300 300 300 300 300 301 301 301 301 300 300 299 298 297 297 296 296 296 296 296 295 295 294 293 293 292 292 293 294 295 295 296 296 297 298 298 298 298 298 298 298 299 299 300 300 300 299 299 299 299 299 298 298
316 315 314 314 314 314 314 313 313 313 312 311 310 310 309 309 308 307 306 305 305 304 304 304 304 304 303 303 303 303 302 301 300 299 299 299 300 300 300 300 300 299 299 298 297 297 296 296 295 295 295 294 294 294 293 293 293 292 293 293 294 294 295 296 297 298 298 298 298 298 298 298 299 299 300 300 300 300 299 299 299 299 298 298 298
317 316 316 315 315 315 314 314 313 312 311 311 310 310 310 309 309 308 306 306 305 305 304 304 304 303 303 303 303 302 301 300 299 299 299 299 299 299 300 300 300 299 299 298 297 297 296 295 295 294 294 294 293 293 293 293 292 292 291 292 292 293 294 295 297 298 299 299 298 298 298 299 299 300 300 300 300 300 300 299 299 299 298 298 298
319 318 317 316 315 315 314 314 313 312 312 311 310 310 310 310 309 307 306 306 306 305 305 305 304 303 303 303 303 302 300 299 299 298 299 299 299 300 300 300 300 299 299 298 298 297 296 296 295 294 294 293 293 293 292 292 291 291 292 292 294 295 297 298 299 300 300 299 299 299 299 300 300 300 300 300 300 300 300 299 299 299 299 299 298
319 319 318 317 315 314 313 313 313 312 311 311 310 310 310 310 309 308 307 307 306 306 305 304 304 304 304 304 303 302 302 300 299 299 299 299 300 301 302 301 300 300 299 299 298 297 296 296 295 295 294 294 293 293 292 292 292 295 296 297 298 299 300 300 301 301 300 299 298 298 299 299 299 299 300 300 299 299 299 299 299 299 299 299 299
319 319 318 317 316 314 313 312 311 311 310 310 310 310 310 310 310 309 308 307 307 306 305 304 304 305 305 304 304 304 304 303 302 301 300 300 300 302 303 302 301 301 301 300 299 298 297 297 296 295 295 295 294 293 292 293 294 297 299 299 300 300 300 300 301 301 299 298 298 298 298 299 299 299 300 300 299 300 299 299 299 299 299 299 299
318 318 318 317 316 314 312 311 311 311 312 311 311 310 310 310 310 309 309 308 307 306 306 305 305 305 306 305 305 304 304 304 304 304 303 302 302 302 302 302 302 302 302 302 301 300 299 298 297 296 296 296 295 294 294 294 295 296 298 299 300 300 300 300 300 300 299 299 299 299 299 299 299 299 299 300 300 300 300 300 300 300 299 299 299
319 318 317 316 315 313 312 311 311 312 313 313 312 311 310 310 310 310 309 309 308 308 307 307 306 306 306 306 306 306 306 306 305 305 304 304 303 303 302 302 303 303 303 303 302 301 300 300 299 298 298 297 296 295 295 296 296 296 296 297 299 300 300 300 299 300 299 299 299 299 299 299 299 299 299 300 300 300 300 300 300 300 300 300 300
317 317 316 315 314 313 312 311 312 313 313 313 311 311 310 310 310 310 309 309 309 309 308 308 308 308 307 307 306 306 306 306 306 306 305 305 305 304 303 303 303 303 303 303 303 302 301 301 300 300 299 298 298 297 297 297 296 296 295 296 297 299 300 300 300 300 300 300 299 299 299 299 299 299 300 300 300 300 300 300 300 301 300 300 300
316 315 314 314 313 313 313 312 312 312 312 312 311 311 310 310 310 310 309 309 309 309 309 309 308 308 308 308 307 307 306 306 307 307 307 307 307 306 305 304 304 303 303 303 303 302 302 301 301 300 299 298 298 298 298 297 297 296 295 295 295 297 299 299 299 299 300 300 299 299 299 299 299 300 300 300 300 300 300 300 300 300 300 300 300
314 314 314 314 314 313 313 313 312 312 312 311 311 311 311 310 310 310 309 309 309 309 309 309 309 309 309 309 308 308 308 308 308 308 308 308 307 306 305 305 304 303 303 303 303 302 302 301 301 300 299 298 297 297 298 298 298 297 296 295 295 296 297 298 298 299 300 300 299 299 299 299 300 300 300 300 300 300 300 300 300 300 300 300 300
Wind_Speed
35 35 34 31 31 33 33 33 33 33 32 31 31 31 31 32 32 30 29 30 29 27 25 23 23 23 23 24 24 24 24 23 23 23 24 25 25 24 24 23 23 22 20 19 18 18 18 19 18 18 17 17 15 14 13 12 12 13 12 12 13 11 10 13 11 7 8 10 10 11 9 8 13 17 18 18 19 21 21 22 24 23 23 23 21
36 36 34 32 32 34 33 33 33 33 32 32 31 32 32 33 32 31 31 31 30 28 26 24 23 23 24 26 25 25 24 24 25 25 26 26 25 25 25 24 23 22 21 21 20 19 19 20 20 18 16 16 16 14 13 12 12 13 12 12 13 12 10 12 11 8 8 10 10 10 8 10 15 18 18 19 21 22 23 23 24 25 24 24 23
36 35 34 33 33 34 33 32 33 33 33 33 32 33 33 33 33 33 32 32 30 28 26 24 23 23 25 26 26 25 25 25 26 26 27 26 26 25 25 24 24 23 23 22 22 20 20 20 20 18 16 16 16 15 13 12 12 13 13 11 11 12 10 10 10 9 8 9 10 10 9 12 16 16 17 18 21 23 24 25 25 25 25 25 24
35 34 34 34 34 34 34 33 33 34 34 34 33 33 34 34 34 34 33 32 30 28 25 23 23 24 26 27 26 26 26 26 27 26 26 26 26 26 25 24 23 23 22 23 22 21 20 20 19 17 17 17 16 15 13 12 12 12 12 10 10 11 9 8 9 9 9 10 11 10 10 13 14 15 16 19 21 22 23 25 26 27 26 25 24
35 35 34 34 34 34 34 34 34 35 35 34 34 35 34 35 35 34 33 32 30 27 25 24 24 25 27 28 28 27 27 27 27 27 26 25 25 25 24 24 23 22 21 21 22 21 20 19 19 18 17 16 16 14 13 12 11 10 10 9 9 9 8 8 8 8 9 10 10 9 10 11 12 14 16 18 20 22 23 25 26 28 28 26 24
34 35 35 35 34 34 34 35 35 35 35 35 35 36 35 35 35 35 34 32 30 27 26 25 25 26 28 29 28 27 27 26 26 26 26 25 24 24 23 23 22 21 20 20 19 19 19 18 18 17 17 16 15 14 13 12 11 9 8 8 9 8 8 7 7 7 8 9 8 8 9 10 10 12 14 15 17 20 24 26 27 28 29 29 27
34 35 35 35 35 34 35 35 35 35 36 36 36 36 36 36 36 35 33 31 29 28 27 26 25 26 28 29 28 27 27 26 26 26 26 25 24 24 24 23 22 21 20 18 17 17 18 18 17 17 17 17 16 14 13 12 11 10 8 7 8 8 8 8 7 8 7 7 6 7 8 8 8 9 11 13 16 18 21 24 26 27 29 30 30
34 34 35 35 35 35 35 35 35 36 36 37 36 36 36 36 36 34 33 31 29 28 28 26 26 27 28 28 28 27 27 27 26 26 26 26 25 24 25 24 23 21 19 18 17 18 18 18 16 16 15 15 15 14 12 11 11 10 9 8 8 8 9 9 10 10 8 6 5 5 6 6 6 7 9 12 15 18 20 21 24 26 27 28 28
34 33 34 35 35 34 35 35 35 35 36 37 37 36 36 36 35 34 32 30 29 28 27 26 26 28 28 28 28 28 28 27 27 27 28 27 26 25 25 24 23 22 21 19 18 18 18 17 16 15 13 13 13 13 12 9 8 9 10 10 10 10 11 10 10 10 9 7 5 5 5 5 5 7 9 12 15 18 20 21 22 24 25 26 27
33 33 33 33 34 35 35 36 36 35 36 36 37 37 37 36 35 33 32 30 29 28 28 27 27 29 29 29 29 29 29 28 27 27 28 27 26 25 24 24 23 23 22 21 20 19 17 16 15 14 13 12 12 13 12 9 7 9 11 11 10 10 10 10 10 9 8 6 5 5 5 5 6 7 9 12 15 18 20 21 22 23 23 24 25
33 33 32 33 34 35 35 36 36 36 36 36 37 37 37 36 35 33 31 31 30 29 29 28 28 29 30 30 30 30 29 28 27 27 27 26 25 25 25 24 24 23 22 22 21 19 18 16 15 14 13 12 12 13 12 10 9 11 11 11 9 8 8 8 7 6 5 5 4 4 4 5 6 7 10 12 16 19 20 21 22 22 21 18 17
33 33 33 34 35 36 35 36 36 36 36 36 37 36 36 35 34 33 32 32 31 30 30 30 29 30 30 30 31 30 29 27 26 27 26 25 25 25 25 24 23 22 21 21 20 19 18 16 15 14 13 12 13 14 13 12 12 12 12 11 9 7 5 4 4 2 2 3 4 4 4 5 6 8 11 14 17 19 20 20 20 20 20 18 17
33 33 34 35 36 36 36 36 36 36 36 36 36 36 35 35 34 34 34 33 32 31 31 30 30 30 31 31 31 30 28 27 27 27 26 26 25 25 24 23 22 21 20 19 19 18 18 16 15 14 13 13 14 15 15 14 14 13 11 10 8 6 4 2 1 2 1 2 5 6 4 5 8 10 13 15 18 19 19 21 20 19 20 20 20
33 34 34 36 37 37 37 37 36 36 36 36 35 35 35 35 35 35 34 33 32 32 32 31 30 30 31 31 31 29 28 27 27 27 26 26 26 25 24 23 23 21 18 17 17 17 17 15 15 15 16 16 16 17 17 15 14 12 11 9 7 5 3 3 5 7 6 4 4 6 5 6 9 11 14 16 18 19 19 20 19 18 18 19 22
32 34 35 35 36 37 37 37 37 36 35 35 35 35 34 35 34 34 34 33 33 33 32 31 30 30 30 30 31 29 28 28 28 27 27 27 26 25 25 25 24 23 21 20 19 18 16 15 16 17 18 19 18 18 17 15 14 12 10 8 7 5 5 5 6 8 8 6 5 6 6 7 10 12 14 14 14 16 17 18 17 16 16 19 22
31 33 35 35 37 37 37 37 36 36 36 35 34 33 32 33 33 34 34 33 33 33 32 31 30 30 30 31 31 30 29 29 29 28 28 27 26 26 26 25 24 24 23 22 21 20 16 14 16 18 18 19 18 18 16 14 13 11 9 8 7 6 6 7 7 7 7 8 7 7 6 6 9 12 13 12 11 13 15 15 14 13 16 19 20
31 32 34 35 37 37 38 38 36 35 35 34 32 32 32 33 34 34 34 33 33 33 32 31 30 30 31 32 33 31 30 29 29 29 29 28 27 27 26 25 25 25 23 22 22 20 17 15 16 17 18 18 18 17 16 14 13 12 10 9 8 7 7 7 6 6 7 7 7 8 7 7 9 11 11 9 9 12 13 12 11 12 15 16 15
31 32 34 37 38 38 39 38 37 35 34 34 34 35 35 34 34 35 35 33 33 33 32 31 31 31 32 33 33 32 30 30 29 28 29 29 28 27 26 26 26 24 23 23 22 21 18 16 15 16 16 15 15 16 15 13 12 12 11 11 11 9 7 6 6 6 6 7 8 8 7 7 8 9 8 6 7 11 12 11 10 12 15 15 14
32 32 33 35 37 38 38 38 38 38 37 37 38 37 34 33 33 34 34 34 34 34 33 32 32 32 32 33 34 33 31 30 29 28 29 30 29 27 27 27 27 25 24 25 24 22 20 18 16 16 14 13 13 14 13 12 11 11 12 13 14 12 9 8 7 7 7 8 8 7 6 6 6 7 6 4 6 10 11 10 11 12 15 16 16
31 31 30 32 33 35 37 39 39 39 39 40 40 37 34 33 33 34 35 34 33 33 33 33 33 32 33 33 34 33 32 31 29 29 29 30 28 27 27 27 27 26 26 26 25 23 22 20 18 17 15 15 15 14 14 13 12 12 12 14 15 14 11 9 9 8 9 9 8 6 5 5 5 7 5 3 6 9 10 10 12 13 15 17 18
30 31 30 31 32 33 36 38 40 41 42 42 39 34 34 34 34 36 37 33 31 32 33 32 32 32 33 33 34 34 33 31 30 30 31 30 29 29 27 26 27 27 26 25 25 25 24 22 21 19 17 16 16 16 15 14 13 13 12 13 14 14 13 12 11 10 11 10 8 7 6 6 6 6 4 3 4 7 9 10 11 13 16 18 19
32 32 30 29 31 33 35 37 39 39 39 38 35 32 32 34 35 37 36 32 31 32 31 31 31 31 32 33 34 35 33 30 30 31 32 31 31 30 28 26 26 27 27 26 25 25 24 23 22 21 19 18 17 16 17 16 15 15 13 12 13 14 15 15 14 13 12 11 10 9 8 7 6 5 4 3 4 7 9 10 10 12 15 17 18
33 33 30 29 29 31 33 34 34 33 33 34 34 31 31 31 33 34 33 31 30 30 30 29 30 30 31 32 34 35 34 32 31 31 31 31 32 31 29 27 26 26 28 28 27 25 23 21 22 22 20 18 17 17 17 17 17 17 15 13 13 14 15 15 14 14 13 12 12 11 10 8 7 6 5 4 5 8 10 10 11 12 14 16 18
33 32 32 31 30 29 30 32 32 31 31 31 31 30 30 31 32 34 33 31 30 29 28 29 29 29 30 31 33 35 35 34 32 31 30 31 31 31 30 28 26 26 27 27 26 24 22 20 20 21 21 20 19 18 18 17 17 17 16 14 13 13 14 14 13 13 13 13 13 13 12 10 8 7 7 7 7 8 10 11 11 12 13 15 16
32 31 31 31 31 31 31 32 33 32 32 31 30 31 31 32 32 32 31 29 28 27 27 28 29 29 29 31 34 36 36 35 33 32 30 29 28 29 30 29 27 25 25 25 24 23 23 21 21 21 21 21 20 20 19 18 16 14 14 14 14 13 13 13 13 14 15 15 15 15 14 11 9 9 11 11 9 8 10 11 11 12 13 14 15
31 30 30 30 32 32 32 31 31 31 32 32 32 32 34 34 33 32 30 29 28 28 28 28 28 28 29 32 34 35 35 34 33 32 31 28 27 28 30 30 27 25 24 23 22 22 22 22 22 23 23 23 23 23 21 19 16 14 14 14 14 14 14 14 14 15 16 16 17 17 16 14 13 13 13 13 11 10 10 11 12 12 13 15 17
29 28 29 29 30 31 31 31 30 30 30 30 29 29 31 32 31 30 29 28 27 27 28 28 28 29 30 30 30 31 32 34 33 33 32 30 29 29 31 31 29 27 24 22 21 20 19 19 20 21 23 24 25 25 24 21 18 17 16 15 14 14 14 14 15 15 17 18 18 19 18 17 17 17 15 14 14 12 11 11 12 11 13 16 20
29 28 29 29 29 29 31 31 30 30 29 29 28 28 28 29 30 31 33 33 32 31 32 33 34 34 32 29 27 27 29 32 35 36 35 33 31 31 32 33 33 32 29 25 21 18 18 17 17 18 20 22 25 26 26 24 21 19 17 16 15 14 14 15 16 17 18 19 20 21 21 20 19 18 17 16 16 14 12 11 11 12 13 17 19
28 27 27 28 27 28 30 31 31 29 28 28 28 30 32 34 34 34 36 37 39 39 39 38 37 35 33 31 30 28 29 34 38 38 36 34 32 31 32 34 36 37 35 30 25 20 17 16 16 17 19 21 23 24 25 24 22 21 19 18 17 16 16 17 19 18 18 18 20 21 21 21 20 18 16 16 16 15 13 12 12 13 15 16 18
25 25 25 26 27 28 29 29 28 28 28 28 28 28 30 33 34 33 33 35 37 38 38 37 37 35 34 34 34 34 33 36 38 37 35 34 32 30 31 32 33 36 37 34 28 23 20 18 17 17 18 20 22 23 24 24 23 22 21 20 19 18 18 19 20 19 17 17 19 19 20 21 20 18 17 16 15 14 13 12 12 13 15 16 17
23 23 23 25 27 29 29 29 27 27 27 28 28 27 26 27 29 31 32 32 33 34 34 35 34 35 35 35 35 35 34 33 33 33 34 33 32 30 30 30 30 33 36 35 30 26 24 23 22 21 20 21 22 24 24 24 24 23 22 21 20 20 20 21 21 18 16 17 17 18 18 19 18 17 17 16 15 14 13 13 13 14 15 15 16
24 23 23 26 29 30 30 29 29 28 28 28 28 28 26 24 24 27 30 32 33 34 36 35 33 33 34 33 33 33 32 31 30 29 30 30 30 30 29 29 29 30 33 33 32 30 30 29 28 27 26 25 26 26 25 25 25 24 23 22 22 22 22 21 18 16 16 17 17 17 17 17 17 16 17 17 16 16 15 15 15 15 15 15 16
27 26 26 27 29 28 28 28 29 29 28 28 27 27 27 26 25 27 29 29 29 30 33 33 33 32 31 31 31 30 29 29 29 28 26 27 28 28 28 28 28 29 31 31 32 32 33 32 31 31 30 30 30 28 27 26 26 25 24 24 25 25 22 18 16 16 16 16 17 17 17 18 18 18 18 18 19 18 18 18 18 16 15 16 16
31 31 31 31 30 27 26 27 28 29 29 29 29 29 29 29 29 28 27 25 24 25 28 30 31 30 29 29 30 29 27 27 27 27 26 25 24 25 26 27 28 29 30 31 32 33 33 33 33 32 32 32 32 30 29 28 27 26 26 26 27 25 21 18 18 18 18 18 18 18 18 18 19 19 20 21 21 20 19 19 18 16 16 16 15
31 32 34 35 33 31 30 30 30 31 31 31 31 31 30 29 28 27 25 23 21 22 25 28 30 29 29 28 28 27 27 26 26 26 26 24 22 23 26 27 28 28 29 30 32 33 33 33 34 34 33 33 32 31 30 29 28 28 28 27 26 24 21 19 19 19 19 19 20 19 18 18 19 19 19 19 18 16 16 16 16 16 16 16 16
29 30 32 33 32 32 32 32 32 32 32 30 29 28 27 26 26 24 22 20 19 20 24 28 30 31 30 30 28 27 27 27 26 26 26 25 24 25 28 29 30 30 30 31 32 32 33 33 34 34 33 33 33 32 31 30 30 29 29 27 24 22 21 20 20 20 20 20 19 18 17 17 18 17 15 13 11 11 12 13 14 15 15 15 16
30 30 32 32 29 28 29 29 29 29 28 26 25 24 24 24 24 22 19 19 21 23 25 26 27 28 30 31 30 29 28 27 25 25 25 26 26 28 29 30 30 30 31 32 33 32 33 33 34 33 33 33 33 32 31 31 30 29 27 24 22 22 22 22 22 22 21 20 18 17 16 16 16 15 13 12 11 10 11 12 13 13 13 13 13
30 31 32 31 29 27 27 27 27 26 25 24 24 24 24 24 23 22 20 20 21 22 22 23 24 26 29 30 29 29 28 27 25 26 27 29 30 30 30 30 30 30 31 32 32 33 33 34 34 33 33 33 32 31 30 30 29 28 26 24 21 21 22 22 21 21 21 21 19 17 15 16 15 14 14 14 12 10 10 12 13 12 12 11 11
24 26 29 30 29 27 27 26 26 26 25 24 23 23 24 24 23 22 22 23 23 22 22 23 24 26 27 28 27 27 27 28 28 29 30 30 31 31 31 30 30 31 31 30 30 31 32 33 33 33 33 32 31 30 29 28 27 27 27 26 23 22 23 23 23 22 22 22 20 17 16 16 16 16 16 15 13 12 12 13 13 12 12 12 12
24 25 28 29 28 26 25 25 25 25 25 25 24 23 23 24 24 23 24 24 24 23 24 26 27 27 27 27 28 29 29 29 29 29 30 30 31 31 32 32 32 32 31 30 30 30 31 31 31 32 32 32 31 30 28 26 25 26 26 26 26 25 26 26 25 23 21 21 20 17 16 17 19 20 19 17 15 14 14 13 13 13 13 13 13
25 25 27 27 26 24 23 24 24 25 26 26 25 24 23 24 23 22 23 24 25 25 26 29 30 29 28 29 31 31 31 31 32 32 32 32 33 32 32 33 33 32 32 31 30 30 30 30 30 31 31 31 31 29 28 26 26 25 25 25 26 27 27 26 24 23 22 21 20 19 18 18 19 21 21 18 15 14 14 13 14 14 14 14 15
21 22 24 25 25 24 23 24 24 25 25 25 25 24 23 22 22 22 23 25 26 26 26 27 27 26 28 31 32 33 34 34 33 34 34 33 33 32 32 32 33 33 33 32 31 30 30 29 30 30 30 30 30 30 29 28 27 26 26 26 27 27 27 26 25 25 24 23 23 22 20 19 19 19 18 17 15 14 14 14 14 13 13 14 15
18 20 21 23 24 24 24 24 24 24 25 26 26 25 23 23 25 25 25 25 26 26 27 27 26 25 27 30 32 33 34 34 33 33 34 33 32 32 32 32 33 33 32 32 31 30 30 29 29 29 29 29 29 29 29 28 27 27 27 27 28 28 28 28 27 25 25 24 22 21 19 18 18 18 17 16 15 15 15 15 14 13 13 13 14
15 16 19 21 23 23 23 23 24 25 25 25 24 23 22 22 24 24 23 24 26 27 28 28 26 24 25 27 29 32 34 34 33 32 32 32 32 32 32 32 33 32 32 32 31 31 31 31 30 29 29 28 28 27 27 26 26 25 25 25 26 26 26 26 26 25 23 22 20 18 16 15 16 17 17 16 16 16 16 16 16 15 15 15 15
14 15 18 20 21 21 21 21 21 22 22 21 21 21 21 21 22 22 23 24 25 27 27 27 25 24 25 27 29 31 34 35 34 33 32 32 33 32 32 32 32 32 31 31 30 30 31 31 31 30 30 29 27 26 25 24 24 23 22 21 22 24 24 24 23 23 22 19 16 15 15 16 17 18 19 18 18 18 18 19 19 18 18 18 18
15 16 18 19 20 20 19 18 17 15 15 16 18 18 19 21 22 22 23 24 24 24 25 25 25 26 27 28 29 30 32 34 34 34 34 34 33 32 31 31 31 30 30 29 29 29 30 30 31 31 30 30 28 26 24 24 24 24 22 21 22 23 22 20 19 20 20 18 17 18 19 19 19 19 17 16 17 18 20 21 22 21 21 21 20
16 17 19 20 20 19 18 15 14 14 14 17 19 19 20 22 23 22 23 23 22 22 23 25 26 28 29 30 29 29 30 32 33 33 34 34 34 32 31 30 29 28 27 26 27 27 28 28 29 29 30 30 29 28 26 25 25 26 26 24 22 21 18 16 17 18 18 17 17 17 17 17 17 16 15 14 16 18 19 20 21 22 23 23 22
14 16 19 20 19 19 17 16 16 17 19 21 22 22 22 22 22 22 22 22 22 22 23 25 26 28 29 30 29 28 28 28 30 31 33 33 33 32 31 30 28 27 25 25 25 25 25 25 25 25 26 27 28 28 29 29 29 29 29 27 24 21 18 17 17 17 17 17 17 16 16 16 16 15 15 16 17 19 19 19 19 20 21 22 22
11 14 17 18 18 19 18 18 19 21 22 23 23 24 24 24 23 22 22 22 22 23 24 25 26 27 27 27 27 27 27 28 29 30 31 31 31 32 32 30 28 26 25 24 24 23 23 23 22 22 23 23 24 26 27 29 30 31 31 30 28 26 23 21 21 20 20 20 19 19 19 19 18 17 18 18 18 19 20 20 20 19 19 20 22
10 12 14 15 16 18 19 19 19 20 21 22 23 24 24 24 24 23 22 22 22 23 24 25 26 26 26 26 25 25 27 29 29 29 28 28 29 31 31 30 28 27 26 24 23 23 22 22 22 21 22 22 23 24 24 25 25 27 28 29 30 29 28 26 25 24 23 22 21 21 21 21 20 20 20 19 19 19 19 20 20 19 19 20 22
8 11 13 14 16 17 18 17 17 16 17 19 21 23 23 24 24 23 22 22 22 22 23 25 25 26 26 26 26 26 27 28 28 28 27 26 27 28 29 29 28 27 25 24 23 22 22 22 23 23 23 23 23 24 24 23 22 22 23 24 26 27 27 26 25 24 23 21 21 22 22 22 22 21 20 18 18 18 18 19 20 21 21 22 22
Wind_Direction
187 188 189 189 188 189 191 191 191 193 195 195 194 193 194 195 196 195 193 193 194 194 194 195 194 194 194 194 192 190 189 188 187 186 184 181 179 176 173 174 170 164 162 161 162 163 158 151 147 147 148 143 136 132 124 116 111 106 105 110 105 101 112 110 104 95 71 54 48 52 53 37 26 21 14 12 15 20 26 28 29 29 28 27 26
187 188 188 188 188 188 189 189 189 191 191 191 191 191 193 195 195 194 193 193 194 195 195 195 195 195 194 193 192 190 190 188 186 186 183 179 176 175 174 174 170 164 162 160 160 160 156 150 147 147 150 147 140 137 132 127 122 114 108 107 104 98 98 101 97 85 64 53 55 63 56 31 26 23 20 22 24 23 25 27 27 28 28 27 25
187 187 186 187 188 188 189 188 188 189 189 189 190 191 193 194 194 194 192 192 194 196 196 196 195 195 194 193 191 191 190 188 186 186 184 180 176 175 175 175 171 167 165 163 162 161 158 154 151 151 152 148 142 140 139 136 132 125 117 108 104 101 94 94 95 88 72 62 63 65 51 32 28 28 29 31 27 23 23 25 24 25 27 28 25
186 185 185 186 187 188 188 187 187 187 187 188 189 191 193 193 193 193 192 191 192 195 197 196 194 193 193 192 190 190 190 188 187 187 186 183 179 176 175 176 175 173 171 168 166 166 164 160 157 158 157 151 146 146 144 141 137 131 122 112 111 110 100 93 92 89 86 80 71 63 47 34 33 35 33 31 26 22 21 21 20 19 21 26 26
185 184 184 185 186 187 186 186 186 186 186 187 189 191 192 191 191 192 191 191 192 194 195 195 194 193 192 191 190 190 190 189 188 187 186 185 182 178 177 178 178 177 176 174 173 172 172 168 164 165 167 160 154 153 152 149 145 139 129 120 120 121 111 100 89 85 91 88 77 62 43 34 39 41 33 23 17 14 13 16 16 14 13 18 23
183 183 183 184 186 186 186 186 186 186 186 187 188 189 190 190 189 191 192 192 193 194 194 194 194 194 193 192 191 191 191 191 189 187 186 185 183 180 179 179 179 178 177 176 176 177 179 176 173 174 178 172 164 161 161 159 158 155 144 133 133 133 123 107 89 87 95 88 73 58 42 38 41 40 30 18 8 4 3 6 11 12 8 6 9
181 182 182 183 186 187 187 187 187 187 186 186 186 187 188 189 189 190 193 193 193 193 194 194 195 195 194 193 193 193 192 191 190 187 186 185 183 181 180 179 178 178 178 177 177 180 181 180 179 179 183 181 174 169 167 166 165 165 158 147 146 143 126 105 87 86 93 84 64 51 45 43 37 30 24 16 9 3 356 354 357 2 2 360 360
181 181 181 182 185 187 187 187 187 186 184 184 185 186 186 188 189 190 192 193 195 195 195 194 195 195 195 195 194 194 193 191 190 189 187 187 186 184 182 181 179 178 178 177 177 179 179 180 180 181 182 183 181 179 176 170 164 161 157 149 147 139 122 105 90 83 82 76 60 45 42 45 36 22 14 8 3 357 351 345 343 347 352 354 357
181 182 182 183 185 186 185 185 185 183 182 182 183 184 185 186 189 191 192 195 197 197 197 195 193 194 195 196 196 195 194 193 191 191 189 188 188 186 183 182 180 178 176 176 177 178 179 180 181 183 183 184 185 185 183 174 162 157 153 147 143 133 121 108 93 85 80 75 66 49 40 39 23 6 360 358 351 345 343 341 339 341 342 344 354
182 182 182 182 183 184 184 183 182 182 181 181 181 183 183 185 188 190 193 195 196 196 195 194 194 194 194 195 196 196 196 195 194 194 193 191 188 186 184 182 180 179 177 176 177 180 181 182 184 186 188 189 190 189 185 179 166 155 149 146 143 135 124 110 95 86 79 73 66 48 33 23 8 353 348 350 346 341 339 337 334 336 338 339 351
183 183 182 180 181 182 183 181 180 181 181 180 181 181 182 184 187 190 192 194 195 195 194 194 195 195 195 195 196 196 197 197 197 196 195 193 190 187 184 181 181 183 182 181 180 180 181 184 188 192 194 195 194 192 190 182 165 154 148 146 144 134 122 110 100 91 77 63 54 39 14 360 357 352 346 346 344 339 335 333 330 329 333 334 335
184 183 182 180 180 181 182 180 179 180 181 181 181 181 183 185 187 190 191 193 194 195 194 194 195 195 196 196 197 198 199 199 197 196 195 195 193 189 184 183 185 188 189 188 186 185 186 189 194 199 201 200 195 189 184 174 165 160 155 153 148 137 124 109 104 108 80 41 18 12 358 343 342 344 344 341 337 334 332 333 332 327 328 329 319
183 182 182 180 180 180 180 179 179 180 181 182 181 181 183 185 188 189 191 192 194 194 194 194 195 196 196 197 198 199 200 199 197 196 196 195 193 189 187 189 192 192 193 195 195 193 193 195 198 199 195 191 186 181 176 171 169 167 164 163 159 152 155 162 218 246 257 339 349 354 350 334 331 334 338 334 328 327 327 328 332 329 329 331 327
183 181 181 180 179 179 179 178 178 179 181 181 180 180 183 185 187 188 189 190 191 192 193 194 195 196 198 198 199 200 200 199 197 196 196 194 192 191 192 193 194 193 196 204 209 205 202 203 203 195 184 180 178 174 174 174 176 177 177 177 175 176 201 232 252 261 260 265 318 346 346 327 326 328 335 334 324 321 322 323 330 331 330 335 336
182 181 181 180 179 179 179 178 177 178 179 179 179 181 183 184 185 186 188 190 192 192 193 194 195 197 199 200 199 200 201 199 197 196 196 195 195 196 195 193 195 196 198 206 214 214 212 213 209 195 184 181 179 178 180 183 187 190 191 191 193 205 232 245 252 260 256 249 283 331 338 322 322 328 335 334 323 321 324 324 328 329 328 334 340
183 183 181 180 179 179 178 177 177 177 177 177 178 181 182 183 184 187 189 192 193 193 193 194 196 198 199 200 200 200 200 198 197 197 197 197 197 197 196 195 198 202 202 203 209 212 216 217 209 198 191 188 185 185 190 195 200 204 204 203 209 227 250 257 255 250 238 231 261 310 323 313 317 327 333 330 322 329 334 333 335 333 326 328 334
185 184 181 179 179 180 179 178 177 176 175 174 176 182 185 185 186 188 190 190 191 193 193 194 198 199 198 199 200 199 198 198 198 198 197 197 196 195 197 199 203 207 207 204 205 209 215 217 210 203 199 198 198 199 202 207 211 214 215 215 223 240 254 260 252 236 225 232 265 296 303 298 310 325 331 324 323 340 349 349 346 336 327 325 325
187 186 183 181 180 182 181 177 174 174 174 174 180 187 189 188 187 189 190 190 191 194 195 195 198 201 201 201 201 200 198 197 199 200 199 198 197 198 201 204 206 208 207 206 207 211 214 215 212 206 202 203 206 207 209 216 221 226 231 232 235 241 241 239 235 229 243 267 281 285 279 282 306 326 328 320 333 351 359 356 345 333 328 325 320
188 187 186 183 181 181 179 176 175 175 176 179 187 192 190 188 187 187 191 195 195 194 194 195 197 201 203 203 202 201 199 199 201 201 200 200 202 204 206 207 207 208 209 209 209 211 213 213 211 211 211 210 210 211 213 221 229 237 239 235 233 235 233 230 233 245 267 282 282 271 253 258 299 319 313 319 350 357 360 355 340 334 331 326 325
186 186 186 183 180 179 179 179 177 176 180 186 191 192 189 187 185 186 192 198 195 191 193 196 197 198 200 201 201 201 201 201 202 202 202 205 208 208 208 208 208 210 211 211 209 208 210 211 210 213 217 215 214 216 220 227 236 241 238 234 232 233 235 241 248 263 283 290 282 266 247 252 292 308 298 317 352 350 352 349 338 340 340 332 333
184 184 184 183 179 179 182 181 178 179 187 191 190 188 186 185 184 187 193 196 191 188 191 194 196 197 198 199 200 201 202 205 205 203 205 209 212 211 210 211 212 213 213 211 209 206 206 207 209 214 218 218 217 219 223 231 240 243 241 239 238 238 241 251 259 270 283 288 279 268 263 270 297 309 288 296 342 338 336 335 332 341 345 339 340
183 182 182 180 179 180 183 183 180 183 188 189 184 182 185 185 185 188 191 191 188 188 189 191 193 195 196 199 200 201 204 209 211 209 209 211 213 214 214 215 216 216 212 207 205 204 205 209 215 220 224 226 226 225 228 234 241 245 247 248 247 246 248 255 264 271 278 283 277 271 273 281 304 320 296 285 334 337 330 329 330 337 342 341 345
180 180 179 177 178 180 182 181 181 183 186 185 182 180 181 182 183 186 188 188 187 186 187 188 190 191 193 196 199 202 205 209 213 215 214 213 213 216 219 219 218 217 214 209 207 209 212 218 225 227 227 229 232 233 235 239 243 247 251 252 253 254 254 258 265 270 274 278 276 272 274 281 298 318 310 295 324 335 329 326 329 334 336 340 346
178 178 176 175 177 179 178 178 180 186 188 185 180 177 178 180 182 186 190 189 186 185 184 185 186 188 190 192 197 203 207 208 211 216 216 213 214 219 222 221 219 218 216 215 217 219 220 224 228 229 228 229 233 238 240 243 247 250 252 254 255 256 257 260 266 270 272 274 274 273 274 279 292 310 313 303 307 321 325 323 326 331 333 339 345
175 175 175 175 176 176 176 178 183 188 189 185 181 178 179 180 182 187 190 189 186 183 182 185 187 187 187 192 198 203 206 207 210 214 215 214 217 221 223 221 220 219 218 219 222 222 222 225 228 230 231 232 234 237 239 241 245 248 250 252 253 252 255 259 263 267 268 269 272 274 274 278 288 301 309 306 297 302 316 321 323 326 330 340 346
172 172 174 176 176 175 176 179 182 185 186 187 187 184 183 183 184 186 187 187 187 184 183 185 188 187 190 196 201 202 204 207 210 212 213 215 218 221 223 221 219 219 219 219 219 220 221 226 229 231 233 234 234 236 237 237 237 238 242 246 250 252 255 257 259 263 267 270 274 275 274 278 285 291 300 303 297 297 309 316 320 325 332 339 342
167 169 172 174 175 174 174 176 179 182 185 188 188 186 186 186 185 184 185 185 186 185 185 187 189 192 196 200 201 201 203 206 208 210 213 215 216 218 220 218 216 216 217 215 215 217 219 222 225 229 231 233 234 236 237 235 233 233 235 240 247 253 258 260 263 266 268 272 275 276 276 279 282 285 291 293 290 291 301 310 315 321 329 334 334
165 166 169 169 170 171 173 176 178 181 183 186 187 186 186 186 186 190 192 191 189 189 191 193 196 198 199 199 198 199 202 205 208 211 214 215 214 214 218 218 216 215 216 215 213 214 216 217 218 220 223 225 229 231 232 231 230 229 232 237 243 251 258 263 266 267 268 271 275 278 280 283 285 289 292 288 280 279 290 304 310 312 319 325 327
162 162 164 165 166 170 175 178 180 180 182 185 188 191 193 193 195 198 199 199 200 200 198 199 201 202 201 200 198 197 202 210 216 217 218 219 218 217 218 218 218 218 219 218 216 213 213 214 215 215 217 219 221 223 224 224 225 226 230 236 242 250 259 265 268 269 269 271 275 278 281 284 287 291 293 285 272 268 280 295 301 305 312 318 319
159 160 162 165 167 171 174 178 181 182 182 183 187 193 197 200 201 202 203 205 208 208 206 207 208 208 207 208 209 209 214 221 223 221 221 224 225 223 221 221 222 222 221 221 219 217 215 214 215 215 215 216 217 217 217 218 222 226 232 239 246 254 262 268 269 269 269 270 275 279 282 284 285 286 284 277 267 267 279 289 292 298 307 311 311
155 158 161 165 170 173 176 179 181 181 183 185 187 190 194 200 205 207 209 212 214 214 214 216 216 216 216 217 218 220 223 227 228 226 225 226 227 225 223 223 223 224 224 222 219 217 218 219 220 220 220 219 219 217 217 219 224 229 237 244 251 258 267 271 269 264 263 267 274 280 282 282 279 274 269 265 263 269 280 283 285 295 303 303 304
156 157 164 170 174 178 180 180 181 182 184 187 189 190 191 196 204 210 214 217 219 219 218 218 219 221 223 224 224 223 223 225 230 232 230 227 226 225 224 224 224 225 225 222 219 219 221 222 224 225 225 226 226 225 225 226 231 236 242 249 255 264 271 272 266 259 258 266 275 279 277 274 268 264 262 260 262 269 275 277 282 292 297 295 299
162 163 169 174 177 180 180 180 181 184 185 186 189 192 193 195 200 207 213 216 220 221 220 220 220 222 224 226 227 228 228 227 229 231 230 228 226 225 225 226 226 226 222 218 217 220 222 224 226 227 228 231 233 234 233 234 237 242 247 253 262 267 269 267 261 257 258 265 275 278 274 269 265 263 263 265 267 270 270 273 282 289 287 287 297
171 174 178 179 180 181 180 180 182 184 187 191 194 196 199 201 204 207 207 206 209 212 215 219 221 222 224 226 226 229 231 230 229 230 231 230 229 226 225 225 224 224 223 221 221 222 222 224 226 228 229 232 235 237 237 239 242 246 251 258 264 264 261 260 260 260 261 266 272 275 273 272 271 270 272 274 273 271 269 272 280 283 278 282 295
178 182 186 187 187 188 187 188 190 191 194 198 200 201 203 206 208 210 206 201 201 203 206 211 216 219 223 225 226 229 232 233 232 232 231 231 228 222 219 216 214 215 219 221 223 224 224 226 227 229 231 233 236 238 240 242 245 249 254 259 260 256 255 258 260 260 261 265 270 272 273 277 280 281 282 280 274 268 269 273 276 275 275 282 295
182 185 189 191 192 193 192 194 196 197 198 201 203 204 205 207 210 212 208 202 202 204 205 209 214 218 220 223 227 231 232 232 232 231 230 228 222 214 211 211 211 213 215 219 223 226 227 230 231 232 233 235 237 240 243 245 249 252 254 255 254 253 255 258 259 260 263 265 266 267 270 278 284 281 273 265 258 258 267 274 275 276 282 292 299
187 190 193 194 194 196 196 196 198 199 200 202 203 205 207 210 212 211 204 199 203 207 208 209 212 216 220 223 226 228 228 228 231 231 227 222 217 214 214 215 215 216 218 221 223 226 228 231 234 235 236 238 239 241 244 247 250 252 251 251 252 254 258 260 261 263 265 264 262 262 268 277 280 268 246 236 239 252 267 277 283 290 299 305 305
195 195 195 195 196 197 197 197 199 200 201 203 204 206 208 210 210 207 202 202 207 209 208 207 208 212 217 221 222 222 220 219 220 218 215 212 213 214 216 218 219 220 223 225 227 228 230 233 235 236 238 240 241 243 245 248 249 247 245 246 251 255 259 261 262 263 265 262 258 258 266 270 263 244 229 230 242 257 269 278 284 289 296 300 296
201 197 197 197 197 198 196 197 198 199 200 202 204 207 208 207 205 202 200 204 209 209 205 207 210 212 214 215 213 210 208 208 208 207 207 210 213 215 216 219 221 223 226 229 230 231 233 236 237 238 239 240 242 244 246 248 248 245 243 244 249 254 258 260 261 263 265 264 260 261 266 262 246 233 232 241 251 260 265 269 274 280 284 285 281
202 200 199 197 196 196 197 197 198 199 201 202 204 206 207 206 203 201 200 203 208 206 204 209 215 215 212 211 208 204 203 205 207 208 210 212 214 216 217 219 222 224 227 230 233 235 237 239 240 241 241 242 243 243 245 247 249 248 246 246 247 251 254 258 260 263 264 264 264 265 266 260 249 242 244 249 252 256 260 264 271 277 279 278 278
200 198 195 192 192 194 195 197 200 203 205 205 205 206 207 206 204 203 201 204 208 207 206 212 218 218 215 215 213 211 211 212 212 214 216 217 217 217 219 222 225 227 229 232 234 238 240 241 242 242 243 243 243 243 244 247 248 248 247 245 245 249 254 257 260 262 263 265 265 264 265 266 259 251 247 247 247 251 257 264 272 277 278 277 279
197 196 190 188 190 193 195 199 204 207 208 208 207 207 206 205 207 208 207 208 210 210 211 215 220 220 220 220 219 218 219 219 218 219 220 221 221 222 224 227 230 231 233 235 237 240 242 243 244 244 244 244 244 243 244 246 247 246 245 244 245 250 255 258 260 262 263 264 264 263 265 267 262 251 245 243 245 250 256 263 271 276 277 278 280
199 198 193 191 194 198 202 205 206 206 207 208 209 208 206 205 209 212 213 212 212 213 215 218 219 220 222 224 223 221 221 222 223 225 225 225 226 228 230 233 236 237 238 240 241 242 244 245 246 247 247 248 248 248 248 249 250 249 247 247 249 253 257 261 263 264 264 263 264 265 265 261 255 249 245 244 248 254 259 264 268 271 273 277 281
206 204 201 201 202 204 207 209 208 209 210 211 211 210 208 207 210 212 213 214 215 217 218 219 218 218 220 223 223 223 223 224 226 230 231 231 232 235 237 239 240 240 241 243 244 244 245 246 248 249 251 252 253 253 253 253 253 252 252 253 255 257 261 264 264 262 262 263 264 262 256 250 247 246 246 249 257 262 265 267 270 271 273 277 280
215 212 210 210 210 210 212 213 213 213 212 212 213 213 212 212 213 214 215 218 219 220 220 219 217 217 219 221 222 224 227 228 229 233 236 237 239 240 242 242 242 243 244 245 246 246 246 247 248 249 251 253 254 254 253 252 251 251 254 257 260 264 268 267 261 255 255 258 259 257 256 255 254 253 254 260 267 271 272 274 274 273 273 275 276
218 215 216 217 217 216 216 215 212 211 213 215 215 215 215 216 216 216 217 220 221 221 221 218 216 218 222 224 224 226 229 230 232 234 238 240 242 243 244 244 244 246 247 249 249 249 249 250 250 250 251 253 254 253 251 250 250 250 252 257 264 270 271 264 252 247 249 251 254 260 265 266 264 263 265 273 279 280 279 277 274 272 271 271 272
222 218 219 221 220 218 215 208 199 203 216 225 225 221 220 220 219 218 218 220 220 220 220 219 218 219 223 225 225 227 230 232 233 235 238 241 244 246 246 246 246 248 250 251 252 252 252 253 253 253 254 255 255 252 250 249 249 249 250 253 259 266 266 256 245 244 250 255 257 261 264 265 265 268 274 283 289 290 286 280 273 270 270 270 271
230 225 223 221 218 214 209 202 198 206 218 226 229 229 227 226 223 221 220 220 220 219 220 221 221 222 224 225 227 230 232 233 235 237 238 242 245 247 248 249 250 250 251 252 253 254 255 255 255 256 256 256 256 254 252 250 250 250 250 250 251 255 259 257 252 253 259 263 262 262 264 268 271 274 277 282 288 293 292 286 277 271 269 269 271
233 227 222 220 219 216 211 204 204 209 216 220 225 228 230 229 228 225 223 223 224 224 225 226 226 227 229 229 230 231 232 232 234 237 239 242 247 249 249 250 252 253 252 253 253 254 255 256 257 258 259 259 258 256 254 252 251 250 250 249 247 248 253 257 258 263 268 269 265 264 267 271 274 277 280 283 286 289 289 285 279 273 267 265 267
240 229 220 218 220 219 215 209 208 213 217 219 223 227 230 231 231 229 225 224 225 227 228 229 230 231 232 233 232 231 231 231 233 236 238 242 247 250 250 250 252 252 253 253 254 254 255 257 259 261 262 262 262 261 259 256 253 251 248 246 244 246 250 254 258 264 269 268 264 263 266 270 274 278 281 283 284 282 280 276 271 266 262 260 263
249 234 224 221 221 220 217 213 212 214 215 217 221 225 228 230 231 231 228 227 227 229 230 232 232 233 233 234 234 234 234 234 235 236 238 241 246 249 249 249 249 250 252 254 256 258 259 260 261 262 263 263 264 265 264 262 259 254 250 246 245 246 249 252 257 263 266 265 263 263 265 269 274 276 278 282 283 279 273 265 260 258 260 262 264